Location: *
(45.5667°S, 177.5167°W)
Time: 23:10:13
(UTC+00:00)

CORIOLIS - Pass Details

Date: 29 May 2022
Orbit: 817 x 839 km, 98.7° (Epoch: 24 June)

Event Time Altitude Azimuth Distance (km) Brightness Sun altitude
Exits shadow 06:05:10 12° 158° (SSE) 2,368 6.2 -18.3°
Maximum altitude 06:10:19 59° 79° (E) 974 4.2 -19.1°
Drops below altitude 10° 06:15:43 10° 359° (N) 2,461 6.7 -20.1°
Sets 06:18:06 0° 355° (N) 3,388 7.5 -20.5°
